owner,sensor,date,latitude,longitude,vertical_datum,sea_water_temperature,qcFlag 
Scripps,ioos:station:wmo:42099:1,2014-10-01T00:22:00Z,27.3400,-84.2750,0.0,28.95,2 
Scripps,ioos:station:wmo:42099:1,2014-10-01T00:52:00Z,27.3400,-84.2750,0.0,28.9,2 
Scripps,ioos:station:wmo:42099:1,2014-10-01T02:22:00Z,27.3400,-84.2750,0.0,29.0,2 
Scripps,ioos:station:wmo:42099:1,2014-10-01T03:22:00Z,27.3400,-84.2750,0.0,28.95,2 
Scripps,ioos:station:wmo:42099:1,2014-10-01T04:22:00Z,27.3400,-84.2750,0.0,28.9,2 
Scripps,ioos:station:wmo:42099:1,2014-10-01T05:22:00Z,27.3400,-84.2750,0.0,28.9,2 
Scripps,ioos:station:wmo:42099:1,2014-10-01T05:52:00Z,27.3400,-84.2750,0.0,28.9,2 
Scripps,ioos:station:wmo:42099:1,2014-10-01T08:22:00Z,27.3400,-84.2750,0.0,28.85,2 
Scripps,ioos:station:wmo:42099:1,2014-10-01T09:22:00Z,27.3400,-84.2750,0.0,28.85,2 
Scripps,ioos:station:wmo:42099:1,2014-10-01T09:52:00Z,27.3400,-84.2750,0.0,28.9,2 
Scripps,ioos:station:wmo:42099:1,2014-10-01T11:22:00Z,27.3400,-84.2750,0.0,28.75,2 
Scripps,ioos:station:wmo:42099:1,2014-10-01T11:52:00Z,27.3400,-84.2750,0.0,28.75,2 
Scripps,ioos:station:wmo:42099:1,2014-10-01T13:22:00Z,27.3400,-84.2750,0.0,28.85,2 
Scripps,ioos:station:wmo:42099:1,2014-10-01T14:22:00Z,27.3400,-84.2750,0.0,28.85,2 
Scripps,ioos:station:wmo:42099:1,2014-10-01T15:22:00Z,27.3400,-84.2750,0.0,29.0,2 
Scripps,ioos:station:wmo:42099:1,2014-10-01T16:22:00Z,27.3400,-84.2750,0.0,29.2,2 
Scripps,ioos:station:wmo:42099:1,2014-10-01T17:22:00Z,27.3400,-84.2750,0.0,29.25,2 
Scripps,ioos:station:wmo:42099:1,2014-10-01T18:22:00Z,27.3400,-84.2750,0.0,29.4,2 
Scripps,ioos:station:wmo:42099:1,2014-10-01T18:52:00Z,27.3400,-84.2750,0.0,29.4,2 
Scripps,ioos:station:wmo:42099:1,2014-10-01T20:22:00Z,27.3400,-84.2750,0.0,29.4,2 
Scripps,ioos:station:wmo:42099:1,2014-10-02T03:22:00Z,27.3400,-84.2750,0.0,29.1,2 
Scripps,ioos:station:wmo:42099:1,2014-10-02T04:22:00Z,27.3400,-84.2750,0.0,29.1,2 
Scripps,ioos:station:wmo:42099:1,2014-10-02T05:22:00Z,27.3400,-84.2750,0.0,29.05,2 
Scripps,ioos:station:wmo:42099:1,2014-10-02T06:22:00Z,27.3400,-84.2750,0.0,29.05,2 
Scripps,ioos:station:wmo:42099:1,2014-10-02T07:22:00Z,27.3400,-84.2750,0.0,29.05,2 
Scripps,ioos:station:wmo:42099:1,2014-10-02T08:22:00Z,27.3400,-84.2750,0.0,29.05,2 
Scripps,ioos:station:wmo:42099:1,2014-10-02T09:22:00Z,27.3400,-84.2750,0.0,29.05,2 
Scripps,ioos:station:wmo:42099:1,2014-10-02T10:22:00Z,27.3400,-84.2750,0.0,29.05,2 
Scripps,ioos:station:wmo:42099:1,2014-10-02T11:22:00Z,27.3400,-84.2750,0.0,29.0,2 
Scripps,ioos:station:wmo:42099:1,2014-10-02T12:22:00Z,27.3400,-84.2750,0.0,29.05,2 
Scripps,ioos:station:wmo:42099:1,2014-10-02T13:22:00Z,27.3400,-84.2750,0.0,29.1,2 
Scripps,ioos:station:wmo:42099:1,2014-10-02T14:22:00Z,27.3400,-84.2750,0.0,29.25,2 
Scripps,ioos:station:wmo:42099:1,2014-10-02T15:22:00Z,27.3400,-84.2750,0.0,29.65,2 
Scripps,ioos:station:wmo:42099:1,2014-10-02T16:22:00Z,27.3400,-84.2750,0.0,30.2,2 
Scripps,ioos:station:wmo:42099:1,2014-10-02T17:22:00Z,27.3400,-84.2750,0.0,30.65,2 
Scripps,ioos:station:wmo:42099:1,2014-10-02T18:22:00Z,27.3400,-84.2750,0.0,31.05,2 
Scripps,ioos:station:wmo:42099:1,2014-10-02T19:22:00Z,27.3400,-84.2750,0.0,31.35,2 
Scripps,ioos:station:wmo:42099:1,2014-10-02T20:22:00Z,27.3400,-84.2750,0.0,31.55,2 
Scripps,ioos:station:wmo:42099:1,2014-10-02T21:22:00Z,27.3400,-84.2750,0.0,31.3,2 
Scripps,ioos:station:wmo:42099:1,2014-10-02T22:22:00Z,27.3400,-84.2750,0.0,31.1,2 
Scripps,ioos:station:wmo:42099:1,2014-10-02T23:22:00Z,27.3400,-84.2750,0.0,30.75,2 
Scripps,ioos:station:wmo:42099:1,2014-10-03T00:22:00Z,27.3400,-84.2750,0.0,29.95,2 
Scripps,ioos:station:wmo:42099:1,2014-10-03T01:22:00Z,27.3400,-84.2750,0.0,29.55,2 
Scripps,ioos:station:wmo:42099:1,2014-10-03T02:22:00Z,27.3400,-84.2750,0.0,29.4,2 
Scripps,ioos:station:wmo:42099:1,2014-10-03T03:22:00Z,27.3400,-84.2750,0.0,29.3,2 
Scripps,ioos:station:wmo:42099:1,2014-10-03T04:22:00Z,27.3400,-84.2750,0.0,29.25,2 
Scripps,ioos:station:wmo:42099:1,2014-10-03T05:22:00Z,27.3400,-84.2750,0.0,29.25,2 
Scripps,ioos:station:wmo:42099:1,2014-10-03T06:22:00Z,27.3400,-84.2750,0.0,29.25,2 
Scripps,ioos:station:wmo:42099:1,2014-10-03T07:22:00Z,27.3400,-84.2750,0.0,29.25,2 
Scripps,ioos:station:wmo:42099:1,2014-10-03T08:22:00Z,27.3400,-84.2750,0.0,29.3,2 
Scripps,ioos:station:wmo:42099:1,2014-10-03T09:22:00Z,27.3400,-84.2750,0.0,29.3,2 
Scripps,ioos:station:wmo:42099:1,2014-10-03T10:22:00Z,27.3400,-84.2750,0.0,29.3,2 
Scripps,ioos:station:wmo:42099:1,2014-10-03T11:22:00Z,27.3400,-84.2750,0.0,29.25,2 
Scripps,ioos:station:wmo:42099:1,2014-10-03T12:22:00Z,27.3400,-84.2750,0.0,29.25,2 
Scripps,ioos:station:wmo:42099:1,2014-10-03T13:22:00Z,27.3400,-84.2750,0.0,29.25,2 
Scripps,ioos:station:wmo:42099:1,2014-10-03T14:22:00Z,27.3400,-84.2750,0.0,29.2,2 
Scripps,ioos:station:wmo:42099:1,2014-10-03T15:22:00Z,27.3400,-84.2750,0.0,29.2,2 
Scripps,ioos:station:wmo:42099:1,2014-10-03T16:22:00Z,27.3400,-84.2750,0.0,29.3,2 
Scripps,ioos:station:wmo:42099:1,2014-10-03T17:22:00Z,27.3400,-84.2750,0.0,29.4,2 
Scripps,ioos:station:wmo:42099:1,2014-10-03T18:22:00Z,27.3400,-84.2750,0.0,29.45,2 
Scripps,ioos:station:wmo:42099:1,2014-10-03T19:22:00Z,27.3400,-84.2750,0.0,29.45,2 
Scripps,ioos:station:wmo:42099:1,2014-10-03T20:22:00Z,27.3400,-84.2750,0.0,29.35,2 
Scripps,ioos:station:wmo:42099:1,2014-10-03T21:22:00Z,27.3400,-84.2750,0.0,29.3,2 
Scripps,ioos:station:wmo:42099:1,2014-10-03T22:22:00Z,27.3400,-84.2750,0.0,29.25,2 
Scripps,ioos:station:wmo:42099:1,2014-10-03T23:22:00Z,27.3400,-84.2750,0.0,29.25,2 
Scripps,ioos:station:wmo:42099:1,2014-10-04T00:22:00Z,27.3400,-84.2750,0.0,29.25,2 
Scripps,ioos:station:wmo:42099:1,2014-10-04T01:22:00Z,27.3400,-84.2750,0.0,29.3,2 
Scripps,ioos:station:wmo:42099:1,2014-10-04T02:22:00Z,27.3400,-84.2750,0.0,29.3,2 
Scripps,ioos:station:wmo:42099:1,2014-10-04T03:22:00Z,27.3400,-84.2750,0.0,29.3,2 
Scripps,ioos:station:wmo:42099:1,2014-10-04T04:22:00Z,27.3400,-84.2750,0.0,29.25,2 
Scripps,ioos:station:wmo:42099:1,2014-10-04T05:52:00Z,27.3400,-84.2750,0.0,29.2,2 
Scripps,ioos:station:wmo:42099:1,2014-10-04T06:22:00Z,27.3400,-84.2750,0.0,29.2,2 
Scripps,ioos:station:wmo:42099:1,2014-10-04T07:22:00Z,27.3400,-84.2750,0.0,29.2,2 
Scripps,ioos:station:wmo:42099:1,2014-10-04T08:22:00Z,27.3400,-84.2750,0.0,29.2,2 
Scripps,ioos:station:wmo:42099:1,2014-10-04T09:22:00Z,27.3400,-84.2750,0.0,29.15,2 
Scripps,ioos:station:wmo:42099:1,2014-10-04T10:22:00Z,27.3400,-84.2750,0.0,29.15,2 
Scripps,ioos:station:wmo:42099:1,2014-10-04T11:22:00Z,27.3400,-84.2750,0.0,29.15,2 
Scripps,ioos:station:wmo:42099:1,2014-10-04T12:22:00Z,27.3400,-84.2750,0.0,29.15,2 
Scripps,ioos:station:wmo:42099:1,2014-10-04T13:22:00Z,27.3400,-84.2750,0.0,29.15,2 
Scripps,ioos:station:wmo:42099:1,2014-10-04T14:22:00Z,27.3400,-84.2750,0.0,29.15,2 
Scripps,ioos:station:wmo:42099:1,2014-10-04T15:22:00Z,27.3400,-84.2750,0.0,29.25,2 
Scripps,ioos:station:wmo:42099:1,2014-10-04T15:52:00Z,27.3400,-84.2750,0.0,29.25,2 
Scripps,ioos:station:wmo:42099:1,2014-10-04T17:22:00Z,27.3400,-84.2750,0.0,29.3,2 
Scripps,ioos:station:wmo:42099:1,2014-10-04T18:22:00Z,27.3400,-84.2750,0.0,29.3,2 
Scripps,ioos:station:wmo:42099:1,2014-10-04T19:22:00Z,27.3400,-84.2750,0.0,29.2,2 
Scripps,ioos:station:wmo:42099:1,2014-10-04T20:22:00Z,27.3400,-84.2750,0.0,29.2,2 
Scripps,ioos:station:wmo:42099:1,2014-10-04T21:22:00Z,27.3400,-84.2750,0.0,29.1,2 
Scripps,ioos:station:wmo:42099:1,2014-10-04T22:22:00Z,27.3400,-84.2750,0.0,29.1,2 
Scripps,ioos:station:wmo:42099:1,2014-10-04T23:22:00Z,27.3400,-84.2750,0.0,29.05,2 
Scripps,ioos:station:wmo:42099:1,2014-10-05T00:22:00Z,27.3400,-84.2750,0.0,29.0,2 
Scripps,ioos:station:wmo:42099:1,2014-10-05T01:22:00Z,27.3400,-84.2750,0.0,29.0,2 
Scripps,ioos:station:wmo:42099:1,2014-10-05T02:22:00Z,27.3400,-84.2750,0.0,29.0,2 
Scripps,ioos:station:wmo:42099:1,2014-10-05T03:22:00Z,27.3400,-84.2750,0.0,28.95,2 
Scripps,ioos:station:wmo:42099:1,2014-10-05T03:52:00Z,27.3400,-84.2750,0.0,28.95,2 
Scripps,ioos:station:wmo:42099:1,2014-10-05T05:22:00Z,27.3400,-84.2750,0.0,28.95,2 
Scripps,ioos:station:wmo:42099:1,2014-10-05T05:52:00Z,27.3400,-84.2750,0.0,28.9,2 
Scripps,ioos:station:wmo:42099:1,2014-10-05T08:22:00Z,27.3400,-84.2750,0.0,28.85,2 
Scripps,ioos:station:wmo:42099:1,2014-10-05T09:22:00Z,27.3400,-84.2750,0.0,28.8,2 
Scripps,ioos:station:wmo:42099:1,2014-10-05T10:22:00Z,27.3400,-84.2750,0.0,28.75,2 
Scripps,ioos:station:wmo:42099:1,2014-10-05T11:22:00Z,27.3400,-84.2750,0.0,28.7,2 
Scripps,ioos:station:wmo:42099:1,2014-10-05T12:22:00Z,27.3400,-84.2750,0.0,28.65,2 
Scripps,ioos:station:wmo:42099:1,2014-10-05T13:22:00Z,27.3400,-84.2750,0.0,28.65,2 
Scripps,ioos:station:wmo:42099:1,2014-10-05T14:22:00Z,27.3400,-84.2750,0.0,28.7,2 
Scripps,ioos:station:wmo:42099:1,2014-10-05T15:22:00Z,27.3400,-84.2750,0.0,28.7,2 
Scripps,ioos:station:wmo:42099:1,2014-10-05T16:22:00Z,27.3400,-84.2750,0.0,28.65,2 
Scripps,ioos:station:wmo:42099:1,2014-10-05T17:22:00Z,27.3400,-84.2750,0.0,28.7,2 
Scripps,ioos:station:wmo:42099:1,2014-10-05T18:22:00Z,27.3400,-84.2750,0.0,28.65,2 
Scripps,ioos:station:wmo:42099:1,2014-10-05T19:22:00Z,27.3400,-84.2750,0.0,28.65,2 
Scripps,ioos:station:wmo:42099:1,2014-10-05T20:22:00Z,27.3400,-84.2750,0.0,28.65,2 
Scripps,ioos:station:wmo:42099:1,2014-10-05T21:22:00Z,27.3400,-84.2750,0.0,28.65,2 
Scripps,ioos:station:wmo:42099:1,2014-10-05T22:22:00Z,27.3400,-84.2750,0.0,28.6,2 
Scripps,ioos:station:wmo:42099:1,2014-10-05T23:22:00Z,27.3400,-84.2750,0.0,28.6,2 
Scripps,ioos:station:wmo:42099:1,2014-10-06T00:22:00Z,27.3400,-84.2750,0.0,28.6,2 
Scripps,ioos:station:wmo:42099:1,2014-10-06T01:22:00Z,27.3400,-84.2750,0.0,28.6,2 
Scripps,ioos:station:wmo:42099:1,2014-10-06T02:22:00Z,27.3400,-84.2750,0.0,28.6,2 
Scripps,ioos:station:wmo:42099:1,2014-10-06T03:22:00Z,27.3400,-84.2750,0.0,28.65,2 
Scripps,ioos:station:wmo:42099:1,2014-10-06T04:22:00Z,27.3400,-84.2750,0.0,28.65,2 
Scripps,ioos:station:wmo:42099:1,2014-10-06T05:22:00Z,27.3400,-84.2750,0.0,28.65,2 
Scripps,ioos:station:wmo:42099:1,2014-10-06T06:22:00Z,27.3400,-84.2750,0.0,28.65,2 
Scripps,ioos:station:wmo:42099:1,2014-10-06T07:22:00Z,27.3400,-84.2750,0.0,28.6,2 
Scripps,ioos:station:wmo:42099:1,2014-10-06T08:22:00Z,27.3400,-84.2750,0.0,28.55,2 
Scripps,ioos:station:wmo:42099:1,2014-10-06T09:22:00Z,27.3400,-84.2750,0.0,28.6,2 
Scripps,ioos:station:wmo:42099:1,2014-10-06T10:22:00Z,27.3400,-84.2750,0.0,28.6,2 
Scripps,ioos:station:wmo:42099:1,2014-10-06T11:22:00Z,27.3400,-84.2750,0.0,28.6,2 
Scripps,ioos:station:wmo:42099:1,2014-10-06T12:22:00Z,27.3400,-84.2750,0.0,28.6,2 
Scripps,ioos:station:wmo:42099:1,2014-10-06T13:22:00Z,27.3400,-84.2750,0.0,28.55,2 
Scripps,ioos:station:wmo:42099:1,2014-10-06T14:22:00Z,27.3400,-84.2750,0.0,28.55,2 
Scripps,ioos:station:wmo:42099:1,2014-10-06T15:22:00Z,27.3400,-84.2750,0.0,28.55,2 
Scripps,ioos:station:wmo:42099:1,2014-10-06T16:22:00Z,27.3400,-84.2750,0.0,28.55,2 
Scripps,ioos:station:wmo:42099:1,2014-10-06T17:22:00Z,27.3400,-84.2750,0.0,28.5,2 
Scripps,ioos:station:wmo:42099:1,2014-10-06T18:22:00Z,27.3400,-84.2750,0.0,28.5,2 
Scripps,ioos:station:wmo:42099:1,2014-10-06T19:22:00Z,27.3400,-84.2750,0.0,28.5,2 
Scripps,ioos:station:wmo:42099:1,2014-10-06T20:22:00Z,27.3400,-84.2750,0.0,28.5,2 
Scripps,ioos:station:wmo:42099:1,2014-10-06T21:22:00Z,27.3400,-84.2750,0.0,28.5,2 
Scripps,ioos:station:wmo:42099:1,2014-10-06T22:22:00Z,27.3400,-84.2750,0.0,28.45,2 
Scripps,ioos:station:wmo:42099:1,2014-10-06T23:22:00Z,27.3400,-84.2750,0.0,28.45,2 
Scripps,ioos:station:wmo:42099:1,2014-10-07T00:22:00Z,27.3400,-84.2750,0.0,28.5,2 
Scripps,ioos:station:wmo:42099:1,2014-10-07T01:22:00Z,27.3400,-84.2750,0.0,28.5,2 
Scripps,ioos:station:wmo:42099:1,2014-10-07T02:22:00Z,27.3400,-84.2750,0.0,28.5,2 
Scripps,ioos:station:wmo:42099:1,2014-10-07T03:22:00Z,27.3400,-84.2750,0.0,28.5,2 
Scripps,ioos:station:wmo:42099:1,2014-10-07T04:22:00Z,27.3400,-84.2750,0.0,28.55,2 
Scripps,ioos:station:wmo:42099:1,2014-10-07T05:22:00Z,27.3400,-84.2750,0.0,28.55,2 
Scripps,ioos:station:wmo:42099:1,2014-10-07T06:22:00Z,27.3400,-84.2750,0.0,28.55,2 
Scripps,ioos:station:wmo:42099:1,2014-10-07T07:22:00Z,27.3400,-84.2750,0.0,28.5,2 
Scripps,ioos:station:wmo:42099:1,2014-10-07T08:22:00Z,27.3400,-84.2750,0.0,28.5,2 
Scripps,ioos:station:wmo:42099:1,2014-10-07T08:52:00Z,27.3400,-84.2750,0.0,28.5,2 
Scripps,ioos:station:wmo:42099:1,2014-10-07T10:22:00Z,27.3400,-84.2750,0.0,28.5,2 
Scripps,ioos:station:wmo:42099:1,2014-10-07T11:22:00Z,27.3400,-84.2750,0.0,28.45,2 
Scripps,ioos:station:wmo:42099:1,2014-10-07T12:22:00Z,27.3400,-84.2750,0.0,28.45,2 
Scripps,ioos:station:wmo:42099:1,2014-10-07T13:22:00Z,27.3400,-84.2750,0.0,28.45,2 
Scripps,ioos:station:wmo:42099:1,2014-10-07T14:22:00Z,27.3400,-84.2750,0.0,28.45,2 
Scripps,ioos:station:wmo:42099:1,2014-10-07T15:22:00Z,27.3400,-84.2750,0.0,28.45,2 
Scripps,ioos:station:wmo:42099:1,2014-10-07T16:22:00Z,27.3400,-84.2750,0.0,28.45,2 
Scripps,ioos:station:wmo:42099:1,2014-10-07T17:22:00Z,27.3400,-84.2750,0.0,28.45,2 
Scripps,ioos:station:wmo:42099:1,2014-10-07T18:22:00Z,27.3400,-84.2750,0.0,28.45,2 
Scripps,ioos:station:wmo:42099:1,2014-10-07T19:22:00Z,27.3400,-84.2750,0.0,28.5,2 
Scripps,ioos:station:wmo:42099:1,2014-10-07T20:22:00Z,27.3400,-84.2750,0.0,28.45,2 
Scripps,ioos:station:wmo:42099:1,2014-10-07T21:22:00Z,27.3400,-84.2750,0.0,28.45,2 
Scripps,ioos:station:wmo:42099:1,2014-10-07T22:22:00Z,27.3400,-84.2750,0.0,28.45,2 
Scripps,ioos:station:wmo:42099:1,2014-10-07T23:22:00Z,27.3400,-84.2750,0.0,28.45,2 
Scripps,ioos:station:wmo:42099:1,2014-10-08T00:22:00Z,27.3400,-84.2750,0.0,28.45,2 
Scripps,ioos:station:wmo:42099:1,2014-10-08T01:22:00Z,27.3400,-84.2750,0.0,28.45,2 
Scripps,ioos:station:wmo:42099:1,2014-10-08T02:22:00Z,27.3400,-84.2750,0.0,28.5,2 
Scripps,ioos:station:wmo:42099:1,2014-10-08T03:22:00Z,27.3400,-84.2750,0.0,28.5,2 
Scripps,ioos:station:wmo:42099:1,2014-10-08T04:22:00Z,27.3400,-84.2750,0.0,28.5,2 
Scripps,ioos:station:wmo:42099:1,2014-10-08T05:22:00Z,27.3400,-84.2750,0.0,28.45,2 
Scripps,ioos:station:wmo:42099:1,2014-10-08T05:52:00Z,27.3400,-84.2750,0.0,28.45,2 
Scripps,ioos:station:wmo:42099:1,2014-10-08T08:22:00Z,27.3400,-84.2750,0.0,28.45,2 
Scripps,ioos:station:wmo:42099:1,2014-10-08T09:22:00Z,27.3400,-84.2750,0.0,28.45,2 
Scripps,ioos:station:wmo:42099:1,2014-10-08T10:22:00Z,27.3400,-84.2750,0.0,28.45,2 
Scripps,ioos:station:wmo:42099:1,2014-10-08T11:22:00Z,27.3400,-84.2750,0.0,28.45,2 
Scripps,ioos:station:wmo:42099:1,2014-10-08T12:22:00Z,27.3400,-84.2750,0.0,28.5,2 
Scripps,ioos:station:wmo:42099:1,2014-10-08T13:22:00Z,27.3400,-84.2750,0.0,28.5,2 
Scripps,ioos:station:wmo:42099:1,2014-10-08T13:52:00Z,27.3400,-84.2750,0.0,28.5,2 
Scripps,ioos:station:wmo:42099:1,2014-10-08T15:22:00Z,27.3400,-84.2750,0.0,28.55,2 
Scripps,ioos:station:wmo:42099:1,2014-10-08T15:52:00Z,27.3400,-84.2750,0.0,28.65,2 
Scripps,ioos:station:wmo:42099:1,2014-10-08T18:22:00Z,27.3400,-84.2750,0.0,28.9,2 
Scripps,ioos:station:wmo:42099:1,2014-10-08T19:22:00Z,27.3400,-84.2750,0.0,28.9,2 
Scripps,ioos:station:wmo:42099:1,2014-10-08T20:22:00Z,27.3400,-84.2750,0.0,28.85,2 
Scripps,ioos:station:wmo:42099:1,2014-10-08T21:22:00Z,27.3400,-84.2750,0.0,28.9,2 
Scripps,ioos:station:wmo:42099:1,2014-10-08T22:22:00Z,27.3400,-84.2750,0.0,28.9,2 
Scripps,ioos:station:wmo:42099:1,2014-10-08T23:22:00Z,27.3400,-84.2750,0.0,28.85,2 
Scripps,ioos:station:wmo:42099:1,2014-10-09T00:22:00Z,27.3400,-84.2750,0.0,28.7,2 
Scripps,ioos:station:wmo:42099:1,2014-10-09T01:22:00Z,27.3400,-84.2750,0.0,28.65,2 
Scripps,ioos:station:wmo:42099:1,2014-10-09T02:22:00Z,27.3400,-84.2750,0.0,28.5,2 
Scripps,ioos:station:wmo:42099:1,2014-10-09T03:22:00Z,27.3400,-84.2750,0.0,28.5,2 
Scripps,ioos:station:wmo:42099:1,2014-10-09T04:22:00Z,27.3400,-84.2750,0.0,28.45,2 
Scripps,ioos:station:wmo:42099:1,2014-10-09T05:22:00Z,27.3400,-84.2750,0.0,28.5,2 
Scripps,ioos:station:wmo:42099:1,2014-10-09T06:22:00Z,27.3400,-84.2750,0.0,28.5,2 
Scripps,ioos:station:wmo:42099:1,2014-10-09T07:22:00Z,27.3400,-84.2750,0.0,28.45,2 
Scripps,ioos:station:wmo:42099:1,2014-10-09T08:22:00Z,27.3400,-84.2750,0.0,28.45,2 
Scripps,ioos:station:wmo:42099:1,2014-10-09T09:22:00Z,27.3400,-84.2750,0.0,28.45,2 
Scripps,ioos:station:wmo:42099:1,2014-10-09T10:22:00Z,27.3400,-84.2750,0.0,28.45,2 
Scripps,ioos:station:wmo:42099:1,2014-10-09T11:22:00Z,27.3400,-84.2750,0.0,28.45,2 
Scripps,ioos:station:wmo:42099:1,2014-10-09T12:22:00Z,27.3400,-84.2750,0.0,28.45,2 
Scripps,ioos:station:wmo:42099:1,2014-10-09T13:22:00Z,27.3400,-84.2750,0.0,28.45,2 
Scripps,ioos:station:wmo:42099:1,2014-10-09T14:22:00Z,27.3400,-84.2750,0.0,28.45,2 
Scripps,ioos:station:wmo:42099:1,2014-10-09T15:22:00Z,27.3400,-84.2750,0.0,28.5,2 
Scripps,ioos:station:wmo:42099:1,2014-10-09T16:22:00Z,27.3400,-84.2750,0.0,28.55,2 
Scripps,ioos:station:wmo:42099:1,2014-10-09T17:22:00Z,27.3400,-84.2750,0.0,28.6,2 
Scripps,ioos:station:wmo:42099:1,2014-10-09T18:22:00Z,27.3400,-84.2750,0.0,28.7,2 
Scripps,ioos:station:wmo:42099:1,2014-10-09T19:22:00Z,27.3400,-84.2750,0.0,28.7,2 
Scripps,ioos:station:wmo:42099:1,2014-10-09T20:22:00Z,27.3400,-84.2750,0.0,28.7,2 
Scripps,ioos:station:wmo:42099:1,2014-10-09T21:22:00Z,27.3400,-84.2750,0.0,28.65,2 
Scripps,ioos:station:wmo:42099:1,2014-10-09T22:22:00Z,27.3400,-84.2750,0.0,28.6,2 
Scripps,ioos:station:wmo:42099:1,2014-10-09T23:22:00Z,27.3400,-84.2750,0.0,28.55,2 
Scripps,ioos:station:wmo:42099:1,2014-10-10T00:22:00Z,27.3400,-84.2750,0.0,28.5,2 
Scripps,ioos:station:wmo:42099:1,2014-10-10T01:22:00Z,27.3400,-84.2750,0.0,28.55,2 
Scripps,ioos:station:wmo:42099:1,2014-10-10T03:22:00Z,27.3400,-84.2750,0.0,28.6,2 
Scripps,ioos:station:wmo:42099:1,2014-10-10T04:22:00Z,27.3400,-84.2750,0.0,28.55,2 
Scripps,ioos:station:wmo:42099:1,2014-10-10T05:22:00Z,27.3400,-84.2750,0.0,28.55,2 
Scripps,ioos:station:wmo:42099:1,2014-10-10T06:22:00Z,27.3400,-84.2750,0.0,28.55,2 
Scripps,ioos:station:wmo:42099:1,2014-10-10T07:22:00Z,27.3400,-84.2750,0.0,28.55,2 
Scripps,ioos:station:wmo:42099:1,2014-10-10T08:22:00Z,27.3400,-84.2750,0.0,28.55,2 
Scripps,ioos:station:wmo:42099:1,2014-10-10T09:22:00Z,27.3400,-84.2750,0.0,28.55,2 
Scripps,ioos:station:wmo:42099:1,2014-10-10T10:22:00Z,27.3400,-84.2750,0.0,28.5,2 
Scripps,ioos:station:wmo:42099:1,2014-10-10T11:22:00Z,27.3400,-84.2750,0.0,28.5,2 
Scripps,ioos:station:wmo:42099:1,2014-10-10T12:22:00Z,27.3400,-84.2750,0.0,28.5,2 
Scripps,ioos:station:wmo:42099:1,2014-10-10T13:22:00Z,27.3400,-84.2750,0.0,28.5,2 
Scripps,ioos:station:wmo:42099:1,2014-10-10T14:22:00Z,27.3400,-84.2750,0.0,28.5,2 
Scripps,ioos:station:wmo:42099:1,2014-10-10T15:22:00Z,27.3400,-84.2750,0.0,28.55,2 
Scripps,ioos:station:wmo:42099:1,2014-10-10T16:22:00Z,27.3400,-84.2750,0.0,28.65,2 
Scripps,ioos:station:wmo:42099:1,2014-10-10T17:22:00Z,27.3400,-84.2750,0.0,28.65,2 
Scripps,ioos:station:wmo:42099:1,2014-10-10T18:22:00Z,27.3400,-84.2750,0.0,28.7,2 
Scripps,ioos:station:wmo:42099:1,2014-10-10T19:22:00Z,27.3400,-84.2750,0.0,28.7,2 
Scripps,ioos:station:wmo:42099:1,2014-10-10T20:22:00Z,27.3400,-84.2750,0.0,28.75,2 
Scripps,ioos:station:wmo:42099:1,2014-10-10T21:22:00Z,27.3400,-84.2750,0.0,28.75,2 
Scripps,ioos:station:wmo:42099:1,2014-10-10T22:22:00Z,27.3400,-84.2750,0.0,28.7,2 
Scripps,ioos:station:wmo:42099:1,2014-10-10T23:22:00Z,27.3400,-84.2750,0.0,28.7,2 
Scripps,ioos:station:wmo:42099:1,2014-10-11T00:22:00Z,27.3400,-84.2750,0.0,28.65,2 
Scripps,ioos:station:wmo:42099:1,2014-10-11T01:22:00Z,27.3400,-84.2750,0.0,28.65,2 
Scripps,ioos:station:wmo:42099:1,2014-10-11T02:22:00Z,27.3400,-84.2750,0.0,28.75,2 
Scripps,ioos:station:wmo:42099:1,2014-10-11T03:22:00Z,27.3400,-84.2750,0.0,28.7,2 
Scripps,ioos:station:wmo:42099:1,2014-10-11T03:52:00Z,27.3400,-84.2750,0.0,28.65,2 
Scripps,ioos:station:wmo:42099:1,2014-10-11T05:22:00Z,27.3400,-84.2750,0.0,28.6,2 
Scripps,ioos:station:wmo:42099:1,2014-10-11T06:22:00Z,27.3400,-84.2750,0.0,28.55,2 
Scripps,ioos:station:wmo:42099:1,2014-10-11T09:22:00Z,27.3400,-84.2750,0.0,28.5,2 
Scripps,ioos:station:wmo:42099:1,2014-10-11T10:22:00Z,27.3400,-84.2750,0.0,28.5,2 
Scripps,ioos:station:wmo:42099:1,2014-10-11T11:22:00Z,27.3400,-84.2750,0.0,28.5,2 
Scripps,ioos:station:wmo:42099:1,2014-10-11T12:22:00Z,27.3400,-84.2750,0.0,28.5,2 
Scripps,ioos:station:wmo:42099:1,2014-10-11T13:22:00Z,27.3400,-84.2750,0.0,28.6,2 
Scripps,ioos:station:wmo:42099:1,2014-10-11T14:22:00Z,27.3400,-84.2750,0.0,28.65,2 
Scripps,ioos:station:wmo:42099:1,2014-10-11T15:22:00Z,27.3400,-84.2750,0.0,28.65,2 
Scripps,ioos:station:wmo:42099:1,2014-10-11T16:22:00Z,27.3400,-84.2750,0.0,28.8,2 
Scripps,ioos:station:wmo:42099:1,2014-10-11T17:22:00Z,27.3400,-84.2750,0.0,28.9,2 
Scripps,ioos:station:wmo:42099:1,2014-10-11T18:22:00Z,27.3400,-84.2750,0.0,28.95,2 
Scripps,ioos:station:wmo:42099:1,2014-10-11T19:22:00Z,27.3400,-84.2750,0.0,28.95,2 
Scripps,ioos:station:wmo:42099:1,2014-10-11T20:22:00Z,27.3400,-84.2750,0.0,28.9,2 
Scripps,ioos:station:wmo:42099:1,2014-10-11T21:22:00Z,27.3400,-84.2750,0.0,28.9,2 
Scripps,ioos:station:wmo:42099:1,2014-10-11T22:22:00Z,27.3400,-84.2750,0.0,28.85,2 
Scripps,ioos:station:wmo:42099:1,2014-10-11T23:22:00Z,27.3400,-84.2750,0.0,28.85,2 
Scripps,ioos:station:wmo:42099:1,2014-10-12T00:22:00Z,27.3400,-84.2750,0.0,28.85,2 
Scripps,ioos:station:wmo:42099:1,2014-10-12T01:22:00Z,27.3400,-84.2750,0.0,28.85,2 
Scripps,ioos:station:wmo:42099:1,2014-10-12T02:22:00Z,27.3400,-84.2750,0.0,28.8,2 
Scripps,ioos:station:wmo:42099:1,2014-10-12T03:22:00Z,27.3400,-84.2750,0.0,28.8,2 
Scripps,ioos:station:wmo:42099:1,2014-10-12T04:22:00Z,27.3400,-84.2750,0.0,28.75,2 
Scripps,ioos:station:wmo:42099:1,2014-10-12T05:22:00Z,27.3400,-84.2750,0.0,28.7,2 
Scripps,ioos:station:wmo:42099:1,2014-10-12T05:52:00Z,27.3400,-84.2750,0.0,28.75,2 
Scripps,ioos:station:wmo:42099:1,2014-10-12T08:22:00Z,27.3400,-84.2750,0.0,28.75,2 
Scripps,ioos:station:wmo:42099:1,2014-10-12T09:22:00Z,27.3400,-84.2750,0.0,28.8,2 
Scripps,ioos:station:wmo:42099:1,2014-10-12T10:22:00Z,27.3400,-84.2750,0.0,28.75,2 
Scripps,ioos:station:wmo:42099:1,2014-10-12T11:22:00Z,27.3400,-84.2750,0.0,28.8,2 
Scripps,ioos:station:wmo:42099:1,2014-10-12T12:22:00Z,27.3400,-84.2750,0.0,28.85,2 
Scripps,ioos:station:wmo:42099:1,2014-10-12T13:22:00Z,27.3400,-84.2750,0.0,28.8,2 
Scripps,ioos:station:wmo:42099:1,2014-10-12T14:22:00Z,27.3400,-84.2750,0.0,28.8,2 
Scripps,ioos:station:wmo:42099:1,2014-10-12T15:22:00Z,27.3400,-84.2750,0.0,28.85,2 
Scripps,ioos:station:wmo:42099:1,2014-10-12T16:22:00Z,27.3400,-84.2750,0.0,28.9,2 
Scripps,ioos:station:wmo:42099:1,2014-10-12T17:22:00Z,27.3400,-84.2750,0.0,29.0,2 
Scripps,ioos:station:wmo:42099:1,2014-10-12T18:22:00Z,27.3400,-84.2750,0.0,29.05,2 
Scripps,ioos:station:wmo:42099:1,2014-10-12T19:22:00Z,27.3400,-84.2750,0.0,29.05,2 
Scripps,ioos:station:wmo:42099:1,2014-10-12T20:22:00Z,27.3400,-84.2750,0.0,29.05,2 
Scripps,ioos:station:wmo:42099:1,2014-10-12T21:22:00Z,27.3400,-84.2750,0.0,29.05,2 
Scripps,ioos:station:wmo:42099:1,2014-10-12T22:22:00Z,27.3400,-84.2750,0.0,29.0,2 
Scripps,ioos:station:wmo:42099:1,2014-10-12T23:22:00Z,27.3400,-84.2750,0.0,28.95,2 
Scripps,ioos:station:wmo:42099:1,2014-10-13T00:22:00Z,27.3400,-84.2750,0.0,28.9,2 
Scripps,ioos:station:wmo:42099:1,2014-10-13T01:22:00Z,27.3400,-84.2750,0.0,28.9,2 
Scripps,ioos:station:wmo:42099:1,2014-10-13T02:22:00Z,27.3400,-84.2750,0.0,28.9,2 
Scripps,ioos:station:wmo:42099:1,2014-10-13T03:22:00Z,27.3400,-84.2750,0.0,28.9,2 
Scripps,ioos:station:wmo:42099:1,2014-10-13T04:22:00Z,27.3400,-84.2750,0.0,28.9,2 
Scripps,ioos:station:wmo:42099:1,2014-10-13T05:22:00Z,27.3400,-84.2750,0.0,28.85,2 
Scripps,ioos:station:wmo:42099:1,2014-10-13T06:22:00Z,27.3400,-84.2750,0.0,28.85,2 
Scripps,ioos:station:wmo:42099:1,2014-10-13T07:22:00Z,27.3400,-84.2750,0.0,28.85,2 
Scripps,ioos:station:wmo:42099:1,2014-10-13T08:22:00Z,27.3400,-84.2750,0.0,28.8,2 
Scripps,ioos:station:wmo:42099:1,2014-10-13T09:22:00Z,27.3400,-84.2750,0.0,28.8,2 
Scripps,ioos:station:wmo:42099:1,2014-10-13T10:22:00Z,27.3400,-84.2750,0.0,28.75,2 
Scripps,ioos:station:wmo:42099:1,2014-10-13T10:52:00Z,27.3400,-84.2750,0.0,28.75,2 